カタログに戻る

THORAD DELTA 1 DEB

運用中LEO
NORAD 8167·DEBRIS·🇺🇸 United States

打ち上げ Nov 15, 1974 から Vandenberg Space Force Base

Loading…

次のパス (今後24時間)

TLE

最新Source: Space-Track

元期: Sep 14, 2026, 14:14 UTC

1 08167U 74089AH  26257.59325389  .00003541  00000-0  67300-2 0  9997
2 08167 101.3681 127.5140 0131717  65.8234 313.0613 13.35517831439327

AllMySatでTHORAD DELTA 1 DEBをリアルタイム追跡

Download on the App Store